OBJECT D, 60015

Orbit data source: Space-Track

You're viewing an Uncataloged Satellite

Recently launched and/or uncataloged satellites may have evolving metadata. Metadata may include but not limited to: Owner, Maufacturer, Bus, Motor, and Mission.

OBJECT D, 60015 is a satellite owned by Xinghe Dongli (CN) in SSO that was launched on Thu, 06 Jun 2024 UTC via a GUSHENXING 1 launch vehicle from the Jiuquan Satellite Launch Center, China (JSC). Unknown objects in Earth's orbit typically refer to objects detected orbiting the Earth but have not yet been identified or cataloged. These objects could be anything from previously untracked satellites, spent rocket stages, debris from satellite collisions, or even natural meteoroids temporarily captured by Earth's gravity.

Loading next visibility...
Identifier
60015, 2024-110D
Orbit
SSO
Last TLE update
6 hours ago
Origin
Flag of CNGalactic Energy Co. (CN / PRC)
Manufacturer
Xinghe Dongli
Mission
Spacecraft
Bus & Motor
LSP, EDGE
Mass
20 kg wet, 20 kg dry
Launch date (UTC)
2024-06-06 (1 year ago)
Launch vehicle
GUSHENXING 1
Launch site
Jiuquan Satellite Launch Center, China (JSC)
Object type
Unknown
Shape & HBR
Unknown
Radar Cross Section
Medium (>0.1 m² and <1 m²)

Expand to show TLE details & history

TLE from 6 hours ago
0 OBJECT D
1 60015U 24110D   25182.87321794  .00006296  00000-0  32089-3 0  9997
2 60015  97.5830 273.1414 0012278  40.6231 319.5915 15.17061646 59019
Epoch: 2025-07-01T20:57Z
TLE epoch observation values (Epoch: 2025-07-01T20:57:26.03Z)
Latitude
-0.00007°
Longitude
38.62052°
Altitude
511.367 km
Speed
7.612 km/s
True Right ascension
18h 12m 33s
True Declination
0° 00' 00"
Sunlit
Object was in full shadow at epoch
Visualization orbit readout
Latitude
-29.24759°
Longitude
-145.39491°
Altitude
534.08 km
Speed
7.59 km/s
Apparent Right ascension
04h 19m 49s
Apparent Declination
-37° 20' 52"
Sunlit
Object is in daylight
Visualization observer readout
Local Sidereal Time
14:18:37
Azimuth
266.453° W
Elevation
-66.308°
Doppler factor
1
Orbital elements
Apogee altitude
520.163 km
Perigee altitude
503.245 km
Semi-major axis
6,889.841 km
Eccentricity
0.00123
Inclination
97.583°
RAAN
273.1414°
Arg. of periapsis
40.6231°
True anomaly
Unknown
Mean anomaly
319.5915°
Eccentric anomaly
Unknown
Mean motion
3.79515 °/min
Orbital period
94.86 mins
BSTAR
0.00032089
Loading maneuver chart data...
Loading SW <> Apogee altitude chart data...
Loading historical data...
Loading historical data...
Loading historical data...
Loading historical data...
Loading historical data...
Loading historical data...
Loading historical data...
Other satellites on launch #110 in the year 2024 (2024-06-06 UTC)

OBJECT D Visibility forecast

Observer location: undefined°, undefined°

Span
Click to sort rows by Start time (UTC) header in descending order
Start Az.
Max El. time (UTC)
Max El. Az.
Max El.
End time (UTC)
End Az.
5 mins2025-07-02 06:35:31.408Z207.639° SW2025-07-02 06:37:31.408Z258.344° W29.109°2025-07-02 06:40:31.408Z325.111° NNW
4 mins2025-07-02 18:07:31.408Z58.283° ENE2025-07-02 18:09:31.408Z100.026° ESE19.657°2025-07-02 18:11:31.408Z137.891° SSE
4 mins2025-07-02 19:41:31.408Z328.452° NNW2025-07-02 19:43:31.408Z283.362° WNW21.666°2025-07-02 19:45:31.408Z244.285° WSW
|